Plainview, TX
on Sunday, October 8, 2017

Sunday
Previous Day Next Day
Daily Summary
 ActualAverageRecord
Temperature
Mean Temperature - -  
Max Temperature 86 °F 74 °F 97 °F (1979)
Min Temperature 47 °F 49 °F 30 °F (1976)
Cooling Degree Days 2    
Growing Degree Days16 (Base - )  
Moisture
Dew Point 42 °F   
Average Humidity 52    
Maximum Humidity 86    
Minimum Humidity 13    
Precipitation
Precipitation 0.00 in - - ()
Wind
Wind Speed 9 mph   
Max Wind Speed 17 mph   
Max Gust Speed 25 mph   
Visibility 10 miles   
Events     
Averages and records for this station are not official NWS values.
Key: T is trace of precipitation, MM is missing value
Source: NWS Daily Summary
Seasonal Weather Averages





Time(CDT)TemperatureDew PointHumidity Pressure Visibility Wind DirectionWind SpeedGust SpeedPrecipitationEvents Conditions
12:15 AM 55.4 °F 41.9 °F 60% 29.85 in 10.0 miles SSW 9.2 mph - N/A   Clear
12:35 AM 53.8 °F 42.8 °F 66% 29.85 in 10.0 miles SSW 8.1 mph - N/A   Clear
12:55 AM 53.1 °F 42.6 °F 68% 29.85 in 10.0 miles SSW 8.1 mph - N/A   Clear
1:15 AM 52.2 °F 42.8 °F 70% 29.84 in 10.0 miles SSW 6.9 mph - N/A   Clear
1:35 AM 51.4 °F 43.0 °F 73% 29.84 in 10.0 miles SSW 6.9 mph - N/A   Clear
1:55 AM 50.9 °F 42.8 °F 74% 29.83 in 10.0 miles SSW 6.9 mph - N/A   Clear
2:15 AM 49.6 °F 42.8 °F 77% 29.84 in 10.0 miles SW 6.9 mph - N/A   Clear
2:35 AM 50.4 °F 42.8 °F 75% 29.83 in 10.0 miles SW 5.8 mph - N/A   Clear
2:55 AM 50.9 °F 43.2 °F 75% 29.83 in 10.0 miles SW 8.1 mph - N/A   Clear
3:15 AM 51.8 °F 43.7 °F 74% 29.82 in 10.0 miles SW 9.2 mph - N/A   Clear
3:35 AM 52.0 °F 43.5 °F 73% 29.81 in 10.0 miles SW 10.4 mph - N/A   Clear
3:55 AM 51.8 °F 43.7 °F 74% 29.80 in 10.0 miles SW 8.1 mph - N/A   Clear
4:15 AM 50.2 °F 43.9 °F 79% 29.79 in 10.0 miles SW 5.8 mph - N/A   Clear
4:35 AM 50.2 °F 43.9 °F 79% 29.78 in 10.0 miles SW 6.9 mph - N/A   Clear
4:55 AM 50.0 °F 44.1 °F 80% 29.78 in 10.0 miles SW 8.1 mph - N/A   Clear
5:15 AM 50.0 °F 43.9 °F 79% 29.77 in 10.0 miles WSW 10.4 mph - N/A   Clear
5:35 AM 50.9 °F 43.3 °F 75% 29.77 in 10.0 miles SW 11.5 mph - N/A   Clear
5:55 AM 51.1 °F 44.1 °F 77% 29.77 in 10.0 miles SW 11.5 mph - N/A   Clear
6:15 AM 50.5 °F 44.4 °F 80% 29.77 in 10.0 miles SW 5.8 mph - N/A   Clear
6:35 AM 48.2 °F 43.7 °F 84% 29.77 in 10.0 miles SW 4.6 mph - N/A   Clear
6:55 AM 48.7 °F 43.9 °F 83% 29.76 in 10.0 miles SSW 6.9 mph - N/A   Clear
7:15 AM 48.7 °F 44.1 °F 84% 29.77 in 10.0 miles SW 6.9 mph - N/A   Clear
7:35 AM 47.8 °F 43.7 °F 86% 29.77 in 10.0 miles SW 5.8 mph - N/A   Clear
7:55 AM 48.2 °F 43.7 °F 84% 29.76 in 10.0 miles SSW 8.1 mph - N/A   Clear
8:15 AM 49.3 °F 44.1 °F 82% 29.76 in 10.0 miles SW 6.9 mph - N/A   Clear
8:35 AM 51.4 °F 44.6 °F 77% 29.76 in 10.0 miles SW 6.9 mph - N/A   Clear
8:55 AM 54.0 °F 45.3 °F 73% 29.77 in 10.0 miles SW 6.9 mph - N/A   Clear
9:15 AM 57.2 °F 45.3 °F 65% 29.77 in 10.0 miles SW 10.4 mph - N/A   Clear
9:35 AM 59.5 °F 45.0 °F 59% 29.77 in 10.0 miles WSW 11.5 mph - N/A   Clear
9:55 AM 61.3 °F 45.7 °F 56% 29.77 in 10.0 miles WSW 11.5 mph - N/A   Clear
10:15 AM 64.2 °F 45.1 °F 50% 29.78 in 10.0 miles SW 9.2 mph - N/A   Clear
10:35 AM 65.3 °F 44.6 °F 47% 29.78 in 10.0 miles SW 12.7 mph - N/A   Clear
10:55 AM 67.6 °F 45.7 °F 45% 29.77 in 10.0 miles SW 12.7 mph 18.4 mph N/A   Clear
11:15 AM 69.3 °F 46.4 °F 44% 29.77 in 10.0 miles SW 9.2 mph 18.4 mph N/A   Clear
11:35 AM 70.3 °F 46.0 °F 42% 29.76 in 10.0 miles SW 13.8 mph 19.6 mph N/A   Clear
11:55 AM 72.0 °F 45.5 °F 39% 29.75 in 10.0 miles SW 15.0 mph 19.6 mph N/A   Clear
12:15 PM 74.3 °F 45.5 °F 36% 29.74 in 10.0 miles SW 12.7 mph - N/A   Clear
12:35 PM 75.7 °F 45.1 °F 34% 29.73 in 10.0 miles SW 11.5 mph 17.3 mph N/A   Clear
12:55 PM 77.9 °F 43.7 °F 30% 29.72 in 10.0 miles WSW 16.1 mph - N/A   Clear
1:15 PM 79.2 °F 42.4 °F 27% 29.71 in 10.0 miles WSW 15.0 mph - N/A   Clear
1:35 PM 80.1 °F 40.5 °F 24% 29.70 in 10.0 miles WSW 16.1 mph 20.7 mph N/A   Clear
1:55 PM 80.4 °F 41.7 °F 25% 29.70 in 10.0 miles WSW 17.3 mph - N/A   Clear
2:15 PM 81.1 °F 41.5 °F 24% 29.68 in 10.0 miles SW 13.8 mph 20.7 mph N/A   Clear
2:35 PM 82.0 °F 40.6 °F 23% 29.67 in 10.0 miles SW 10.4 mph 17.3 mph N/A   Clear
2:55 PM 83.1 °F 42.1 °F 23% 29.66 in 10.0 miles SW 12.7 mph - N/A   Clear
3:15 PM 84.2 °F 38.3 °F 20% 29.65 in 10.0 miles WSW 15.0 mph 19.6 mph N/A   Clear
3:35 PM 84.0 °F 38.3 °F 20% 29.64 in 10.0 miles WSW 12.7 mph 17.3 mph N/A   Clear
3:55 PM 85.6 °F 32.2 °F 15% 29.64 in 10.0 miles WSW 16.1 mph 21.9 mph N/A   Clear
4:15 PM 86.0 °F 30.2 °F 13% 29.64 in 10.0 miles WSW 17.3 mph 25.3 mph N/A   Clear
4:35 PM 85.5 °F 32.4 °F 15% 29.64 in 10.0 miles WSW 13.8 mph - N/A   Clear
4:55 PM 85.3 °F 31.5 °F 14% 29.64 in 10.0 miles WSW 16.1 mph - N/A   Clear
5:15 PM 84.9 °F 32.2 °F 15% 29.64 in 10.0 miles WSW 16.1 mph - N/A   Clear
5:35 PM 84.4 °F 33.1 °F 16% 29.64 in 10.0 miles West 13.8 mph - N/A   Clear
5:55 PM 83.5 °F 34.3 °F 17% 29.64 in 10.0 miles WSW 11.5 mph - N/A   Clear
6:15 PM 81.5 °F 37.8 °F 21% 29.64 in 10.0 miles WSW 9.2 mph - N/A   Clear
6:35 PM 78.3 °F 40.8 °F 26% 29.64 in 10.0 miles WSW 8.1 mph - N/A   Clear
6:55 PM 74.5 °F 41.0 °F 30% 29.64 in 10.0 miles WSW 6.9 mph - N/A   Clear
7:15 PM 72.3 °F 41.4 °F 33% 29.64 in 10.0 miles SW 5.8 mph - N/A   Clear
7:35 PM 68.2 °F 43.0 °F 40% 29.65 in 10.0 miles SW 4.6 mph - N/A   Clear
7:55 PM 65.8 °F 45.7 °F 48% 29.65 in 10.0 miles SW 8.1 mph - N/A   Clear
8:15 PM 65.5 °F 43.7 °F 45% 29.65 in 10.0 miles SW 8.1 mph - N/A   Clear
8:35 PM 64.2 °F 44.4 °F 49% 29.66 in 10.0 miles SW 8.1 mph - N/A   Clear
8:55 PM 62.6 °F 44.2 °F 51% 29.66 in 10.0 miles SW 8.1 mph - N/A   Clear
9:15 PM 60.8 °F 43.2 °F 52% 29.66 in 10.0 miles SW 6.9 mph - N/A   Clear
9:35 PM 62.1 °F 42.4 °F 49% 29.66 in 10.0 miles SW 8.1 mph - N/A   Clear
9:55 PM 60.8 °F 43.2 °F 52% 29.66 in 10.0 miles SW 6.9 mph - N/A   Clear
10:15 PM 59.2 °F 43.5 °F 56% 29.67 in 10.0 miles SSW 8.1 mph - N/A   Clear
10:35 PM 59.4 °F 43.2 °F 55% 29.67 in 10.0 miles SSW 8.1 mph - N/A   Clear
10:55 PM 59.0 °F 43.2 °F 56% 29.68 in 10.0 miles SW 8.1 mph - N/A   Clear
11:15 PM 58.5 °F 43.2 °F 57% 29.68 in 10.0 miles SW 6.9 mph - N/A   Clear
11:35 PM 57.0 °F 43.3 °F 60% 29.68 in 10.0 miles SW 8.1 mph - N/A   Clear
11:55 PM 57.7 °F 43.0 °F 58% 29.68 in 10.0 miles SSW 8.1 mph - N/A   Clear
 Powered By Weather Underground